Grosse Ile, MI

8:10 AM EDT on August 17, 2017 (GMT -0400)
Grosse Ile Municipal

Weather History for KONZ - September, 2012

Change the Weather History Date:

Saturday, September 22, 2012

  Actual Average (KDTW) Record (KDTW)
Temperature  
Mean Temperature 54 °F -  
Max Temperature 60 °F 69 °F 91 °F (1941)
Min Temperature 48 °F 49 °F 30 °F (1974)
Degree Days  
Heating Degree Days 11    
Growing Degree Days 4 (Base 50)    
Moisture  
Dew Point 49 °F    
Average Humidity 82    
Maximum Humidity 94    
Minimum Humidity 59    
Precipitation  
Precipitation 0.05 in - - ()
Sea Level Pressure  
Sea Level Pressure 29.85 in    
Wind  
Wind Speed 4 mph (West)    
Max Wind Speed 13 mph    
Max Gust Speed 21 mph    
Visibility 10 miles    
Events Rain    
Averages and records for this station are not official NWS values.
T = Trace of Precipitation, MM = Missing Value Source: NWS Daily Summary

Daily Weather History Graph

Daily Weather History Graph

Search for Another Location

Airport or City:

Trip Planner

Search our weather history database for the weather conditions in past years. The results will help you decide how hot, cold, wet, or windy it might be!

Date:

Astronomy

Sep. 22, 2012 Rise Set
Actual Time 7:20 AM EDT 7:29 PM EDT
Civil Twilight 6:52 AM EDT 7:56 PM EDT
Nautical Twilight 6:19 AM EDT 8:29 PM EDT
Astronomical Twilight 5:46 AM EDT 9:02 PM EDT
Moon 2:43 PM EDT (9/22) No Moon Set
Length of Visible Light 13h 04m
Length of Day
12h 08m
Waxing Crescent, 48% of the Moon is Illuminated
Sep 22
Waxing Crescent
Sep 22
First Quarter
Sep 29
Full
Oct 8
Last Quarter
Oct 15
New

Hourly Weather History & Observations

Time (EDT) Temp. Dew Point Humidity Pressure Visibility Wind Dir Wind Speed Gust Speed Precip Events Conditions
12:14 AM 55.4 °F 51.8 °F 88% 29.77 in 10.0 mi Calm Calm - N/A Rain Light Rain
12:34 AM 55.4 °F 51.8 °F 88% 29.77 in 10.0 mi Calm Calm - 0.01 in Rain Light Rain
12:54 AM 55.4 °F 51.8 °F 88% 29.75 in 10.0 mi Calm Calm - 0.01 in Rain Light Rain
1:14 AM 55.4 °F 51.8 °F 88% 29.73 in 10.0 mi Calm Calm - 0.01 in Rain Light Rain
1:34 AM 55.4 °F 51.8 °F 88% 29.74 in 10.0 mi Calm Calm - 0.02 in   Overcast
1:54 AM 55.4 °F 51.8 °F 88% 29.74 in 10.0 mi Calm Calm - 0.02 in   Overcast
2:14 AM 55.4 °F 51.8 °F 88% 29.74 in 10.0 mi Calm Calm - N/A   Overcast
2:34 AM 55.4 °F 51.8 °F 88% 29.73 in 10.0 mi Calm Calm - N/A   Overcast
2:55 AM 55.4 °F 51.8 °F 88% 29.73 in 10.0 mi Calm Calm - N/A   Overcast
3:14 AM 55.4 °F 51.8 °F 88% 29.72 in 10.0 mi Calm Calm - N/A   Overcast
3:34 AM 55.4 °F 51.8 °F 88% 29.73 in 10.0 mi SW 3.5 mph - N/A   Overcast
3:55 AM 55.4 °F 51.8 °F 88% 29.72 in 7.0 mi South 5.8 mph - N/A   Overcast
4:14 AM 55.4 °F 51.8 °F 88% 29.73 in 10.0 mi SW 3.5 mph - N/A   Overcast
4:34 AM 55.4 °F 51.8 °F 88% 29.73 in 10.0 mi SW 3.5 mph - N/A   Overcast
4:54 AM 55.4 °F 51.8 °F 88% 29.73 in 10.0 mi Calm Calm - N/A   Overcast
5:14 AM 55.4 °F 51.8 °F 88% 29.73 in 10.0 mi Calm Calm - N/A   Overcast
5:34 AM 53.6 °F 51.8 °F 94% 29.73 in 10.0 mi WSW 4.6 mph - N/A   Overcast
5:54 AM 53.6 °F 51.8 °F 94% 29.74 in 10.0 mi West 4.6 mph - N/A   Overcast
6:14 AM 53.6 °F 51.8 °F 94% 29.76 in 7.0 mi WNW 8.1 mph - N/A   Overcast
6:34 AM 53.6 °F 51.8 °F 94% 29.76 in 10.0 mi West 5.8 mph - N/A   Scattered Clouds
6:54 AM 53.6 °F 51.8 °F 94% 29.77 in 10.0 mi SW 5.8 mph - N/A   Scattered Clouds
7:14 AM 53.6 °F 50.0 °F 88% 29.78 in 10.0 mi SW 4.6 mph - N/A   Scattered Clouds
7:34 AM 53.6 °F 50.0 °F 88% 29.78 in 10.0 mi SW 3.5 mph - N/A   Scattered Clouds
7:54 AM 53.6 °F 50.0 °F 88% 29.79 in 10.0 mi West 6.9 mph - N/A   Mostly Cloudy
8:14 AM 53.6 °F 50.0 °F 88% 29.79 in 10.0 mi WSW 4.6 mph - N/A   Mostly Cloudy
8:34 AM 53.6 °F 50.0 °F 88% 29.80 in 10.0 mi West 6.9 mph - N/A   Overcast
8:54 AM 53.6 °F 50.0 °F 88% 29.81 in 10.0 mi West 6.9 mph - N/A   Mostly Cloudy
9:14 AM 55.4 °F 51.8 °F 88% 29.81 in 10.0 mi West 8.1 mph - N/A   Scattered Clouds
9:34 AM 55.4 °F 51.8 °F 88% 29.81 in 10.0 mi West 9.2 mph - N/A   Overcast
9:54 AM 55.4 °F 51.8 °F 88% 29.81 in 10.0 mi West 8.1 mph - N/A   Mostly Cloudy
10:14 AM 57.2 °F 51.8 °F 82% 29.81 in 10.0 mi WSW 11.5 mph 16.1 mph N/A   Scattered Clouds
10:55 AM 59.0 °F 48.2 °F 67% 29.81 in 10.0 mi West 9.2 mph - N/A   Scattered Clouds
11:14 AM 60.8 °F 48.2 °F 63% 29.81 in 10.0 mi WNW 9.2 mph - N/A   Scattered Clouds
11:34 AM 59.0 °F 46.4 °F 63% 29.82 in 10.0 mi West 9.2 mph - N/A   Scattered Clouds
11:55 AM 59.0 °F 46.4 °F 63% 29.82 in 10.0 mi West 9.2 mph 16.1 mph N/A   Scattered Clouds
12:14 PM 60.8 °F 46.4 °F 59% 29.82 in 10.0 mi WNW 11.5 mph - N/A   Scattered Clouds
12:34 PM 59.0 °F 46.4 °F 63% 29.82 in 10.0 mi WNW 10.4 mph - N/A   Mostly Cloudy
12:54 PM 57.2 °F 46.4 °F 67% 29.83 in 10.0 mi West 12.7 mph 20.7 mph N/A Rain Light Rain
1:14 PM 55.4 °F 46.4 °F 72% 29.85 in 10.0 mi West 12.7 mph 18.4 mph N/A Rain Rain
1:34 PM 53.6 °F 48.2 °F 82% 29.85 in 10.0 mi NW 9.2 mph 16.1 mph 0.02 in Rain Light Rain
1:54 PM 53.6 °F 46.4 °F 77% 29.86 in 10.0 mi WNW 8.1 mph - 0.02 in   Overcast
2:14 PM 53.6 °F 44.6 °F 72% 29.85 in 10.0 mi WNW 11.5 mph 20.7 mph N/A   Mostly Cloudy
2:34 PM 53.6 °F 46.4 °F 77% 29.84 in 10.0 mi NW 11.5 mph 18.4 mph N/A   Overcast
2:54 PM 53.6 °F 44.6 °F 72% 29.84 in 10.0 mi NW 9.2 mph - N/A   Mostly Cloudy
3:14 PM 53.6 °F 44.6 °F 72% 29.86 in 10.0 mi West 9.2 mph - N/A   Overcast
3:34 PM 53.6 °F 44.6 °F 72% 29.86 in 10.0 mi West 8.1 mph - N/A   Overcast
3:54 PM 51.8 °F 46.4 °F 82% 29.87 in 10.0 mi Calm Calm - N/A Rain Light Rain
4:14 PM 53.6 °F 46.4 °F 77% 29.87 in 10.0 mi SW 6.9 mph - N/A   Overcast
4:35 PM 53.6 °F 46.4 °F 77% 29.88 in 10.0 mi West 3.5 mph - N/A   Mostly Cloudy
4:54 PM 53.6 °F 46.4 °F 77% 29.89 in 10.0 mi West 8.1 mph - N/A   Scattered Clouds
5:14 PM 53.6 °F 44.6 °F 72% 29.90 in 10.0 mi West 9.2 mph - N/A   Clear
5:35 PM 53.6 °F 44.6 °F 72% 29.91 in 10.0 mi West 9.2 mph - N/A   Clear
5:54 PM 53.6 °F 46.4 °F 77% 29.93 in 10.0 mi West 11.5 mph - N/A   Clear
6:14 PM 55.4 °F 46.4 °F 72% 29.94 in 10.0 mi West 8.1 mph - N/A   Scattered Clouds
6:34 PM 55.4 °F 46.4 °F 72% 29.96 in 10.0 mi West 11.5 mph - N/A   Mostly Cloudy
6:54 PM 55.4 °F 46.4 °F 72% 29.97 in 10.0 mi West 8.1 mph 16.1 mph N/A   Scattered Clouds
7:14 PM 53.6 °F 48.2 °F 82% 29.97 in 10.0 mi WSW 8.1 mph - N/A   Clear
7:34 PM 53.6 °F 48.2 °F 82% 29.98 in 10.0 mi West 8.1 mph - N/A   Clear
7:54 PM 53.6 °F 48.2 °F 82% 29.99 in 10.0 mi West 6.9 mph - N/A   Clear
8:14 PM 53.6 °F 46.4 °F 77% 30.00 in 10.0 mi West 4.6 mph - N/A   Clear
8:34 PM 51.8 °F 46.4 °F 82% 30.01 in 10.0 mi WSW 8.1 mph - N/A   Clear
8:54 PM 51.8 °F 46.4 °F 82% 30.02 in 10.0 mi WSW 5.8 mph - N/A   Clear
9:15 PM 51.8 °F 46.4 °F 82% 30.02 in 10.0 mi West 5.8 mph - N/A   Clear
9:34 PM 51.8 °F 46.4 °F 82% 30.03 in 10.0 mi West 5.8 mph - N/A   Clear
9:54 PM 51.8 °F 46.4 °F 82% 30.03 in 10.0 mi West 4.6 mph - N/A   Clear
10:15 PM 50.0 °F 46.4 °F 87% 30.04 in 10.0 mi WSW 5.8 mph - N/A   Clear
10:34 PM 50.0 °F 46.4 °F 87% 30.05 in 10.0 mi WSW 4.6 mph - N/A   Clear
10:54 PM 48.2 °F 46.4 °F 93% 30.06 in 10.0 mi SW 4.6 mph - N/A   Clear
11:14 PM 48.2 °F 46.4 °F 93% 30.06 in 10.0 mi WSW 5.8 mph - N/A   Clear
11:34 PM 48.2 °F 44.6 °F 87% 30.07 in 10.0 mi SW 4.6 mph - N/A   Clear
11:55 PM 48.2 °F 44.6 °F 87% 30.08 in 10.0 mi WSW 5.8 mph - N/A   Clear